FW0904 Weather Reports


Display with metric or nautical units.
time (UTC)temp
F
wind
direction
speed
MPH
gust
MPH
rain 1hr
in
rain 24hr
in
rain mn
in
humidity
%
barometer
mb
20260507043055 47 42 0.0 0.0 0.00 0.00 0.00 89 1016.9
20260507041555 47 42 0.0 0.0 0.00 0.00 0.00 89 1016.9
20260507040053 47 42 0.0 0.0 0.00 0.00 0.00 89 1016.8
20260507034553 47 42 0.0 0.0 0.00 0.00 0.00 89 1016.8
20260507033051 47 42 0.0 0.0 0.00 0.00 0.00 89 1016.7
20260507031550 47 42 0.0 0.0 0.00 0.00 0.00 89 1016.7
20260507030049 46 42 0.0 0.0 0.00 0.00 0.00 88 1016.7
20260507024601 47 42 0.0 0.0 0.00 0.00 0.00 88 1016.6
20260507023046 47 42 0.0 0.0 0.00 0.00 0.00 88 1016.5
20260507021545 47 42 0.0 0.0 0.00 0.00 0.00 88 1016.4
20260507014553 47 42 0.0 0.0 0.00 0.00 0.00 87 1016.3
20260507013047 47 42 0.0 0.0 0.00 0.00 0.00 87 1016.4
20260507011541 47 42 0.0 0.0 0.00 0.00 0.00 87 1016.4
20260507010040 47 42 0.0 0.0 0.00 0.00 0.00 87 1016.4
20260507004543 47 42 0.0 0.0 0.00 0.00 0.00 87 1016.4
20260507003038 47 42 0.0 0.0 0.00 0.00 0.00 87 1016.3
20260507001538 47 42 0.0 0.0 0.00 0.00 0.00 87 1016.4
20260507000037 47 42 0.0 0.0 0.00 0.00 0.00 86 1016.4
20260506234539 47 42 0.0 0.0 0.00 0.00 0.00 86 1016.4
20260506233034 48 42 0.0 0.0 0.00 0.00 0.00 85 1016.4
20260506231545 48 42 0.0 0.0 0.00 0.00 0.00 85 1016.4
20260506230039 48 42 0.0 0.0 0.00 0.00 0.00 85 1016.3
20260506224531 48 42 0.0 0.0 0.00 0.00 0.00 85 1016.3
20260506223044 49 42 0.0 0.0 0.00 0.00 0.00 85 1016.2
20260506221529 49 42 0.0 0.0 0.00 0.00 0.00 85 1016.2
20260506220030 49 42 0.0 2.0 0.00 0.00 0.00 85 1016.1
20260506214527 48 42 0.0 0.0 0.00 0.00 0.00 86 1016.1
20260506213029 49 42 0.0 0.0 0.00 0.00 0.00 85 1016.0
20260506211532 49 42 0.0 0.0 0.00 0.00 0.00 85 1015.9
20260506210030 49 42 0.0 0.0 0.00 0.00 0.00 84 1015.8
20260506204523 49 42 0.0 0.0 0.00 0.00 0.00 84 1015.8
20260506203027 49 42 0.0 0.0 0.00 0.00 0.00 83 1015.7
20260506201531 49 42 0.0 0.0 0.00 0.00 0.00 83 1015.6
20260506200019 49 42 0.0 0.0 0.00 0.00 0.00 82 1015.5
20260506194525 50 42 0.0 0.0 0.00 0.00 0.00 82 1015.3
20260506193016 50 42 0.0 0.0 0.00 0.00 0.00 82 1015.2
20260506191516 51 42 0.0 0.0 0.00 0.00 0.00 81 1015.0
20260506190014 51 42 0.0 1.0 0.00 0.00 0.00 80 1015.0
20260506184513 51 42 0.0 1.0 0.00 0.00 0.00 79 1014.8
20260506183019 51 42 0.0 2.0 0.00 0.00 0.00 78 1014.7
20260506181510 52 42 0.0 1.0 0.00 0.00 0.00 77 1014.6
20260506180011 52 42 0.0 2.0 0.00 0.00 0.00 76 1014.5
20260506174510 52 42 0.0 2.0 0.00 0.00 0.00 75 1014.3
20260506173005 53 42 0.0 2.0 0.00 0.00 0.00 74 1014.2
20260506171504 53 42 0.0 3.0 0.00 0.00 0.00 74 1014.1
20260506170003 53 42 1.0 3.0 0.00 0.00 0.00 74 1014.0
20260506164506 54 42 1.0 2.0 0.00 0.00 0.00 73 1014.0
20260506163003 54 42 1.0 2.0 0.00 0.00 0.00 75 1014.1
20260506161502 54 42 0.0 3.0 0.00 0.00 0.00 75 1013.9
20260506160002 55 42 1.0 3.0 0.00 0.00 0.00 73 1014.1
20260506154701 56 46 1.0 2.0 0.00 0.00 0.00 71 1013.9
20260506153103 56 57 0.0 2.0 0.00 0.00 0.00 69 1013.9
20260506151558 56 56 1.0 3.0 0.00 0.00 0.00 68 1013.9
20260506150100 55 81 0.0 2.0 0.00 0.00 0.00 71 1013.7
20260506144607 55 78 0.0 3.0 0.00 0.00 0.00 69 1013.8
20260506143103 54 81 0.0 3.0 0.00 0.00 0.00 69 1013.8
20260506141556 54 110 0.0 2.0 0.00 0.00 0.00 67 1013.8
20260506140056 55 49 0.0 2.0 0.00 0.00 0.00 67 1013.8
20260506134556 56 71 0.0 2.0 0.00 0.00 0.00 67 1013.9
20260506133053 57 77 1.0 4.0 0.00 0.00 0.00 62 1013.9
20260506131555 58 77 0.0 2.0 0.00 0.00 0.00 61 1013.8
20260506130059 60 53 0.0 4.0 0.00 0.00 0.00 59 1013.9
20260506124552 56 214 1.0 4.0 0.00 0.00 0.00 65 1013.9
20260506123051 54 42 0.0 2.0 0.00 0.00 0.00 66 1013.9
20260506121648 55 42 0.0 2.0 0.00 0.00 0.00 62 1013.8
20260506120046 57 46 1.0 3.0 0.00 0.00 0.00 61 1013.8
20260506114544 60 59 0.0 4.0 0.00 0.00 0.00 58 1013.7
20260506113040 58 82 0.0 3.0 0.00 0.00 0.00 64 1013.6
20260506111538 55 58 0.0 2.0 0.00 0.00 0.00 65 1013.8
20260506110035 56 58 0.0 2.0 0.00 0.00 0.00 67 1013.8
20260506104535 56 58 0.0 3.0 0.00 0.00 0.00 66 1013.7
20260506103042 55 65 0.0 3.0 0.00 0.00 0.00 66 1013.8
20260506101531 57 78 0.0 3.0 0.00 0.00 0.00 65 1013.7
20260506100029 56 86 1.0 3.0 0.00 0.00 0.00 62 1013.7
20260506094527 55 99 0.0 5.0 0.00 0.00 0.00 68 1013.8
20260506093024 56 50 1.0 5.0 0.00 0.00 0.00 67 1013.7
20260506091521 53 80 1.0 3.0 0.00 0.00 0.00 73 1013.7
20260506090026 54 71 0.0 3.0 0.00 0.00 0.00 72 1013.7
20260506084520 52 76 0.0 3.0 0.00 0.00 0.00 72 1013.6
20260506083015 53 46 0.0 3.0 0.00 0.00 0.00 74 1013.4
20260506081512 53 45 1.0 3.0 0.00 0.00 0.00 73 1013.4
20260506073004 49 130 0.0 9.0 0.00 0.00 0.00 78 1013.5
20260506071604 49 46 1.0 3.0 0.00 0.00 0.00 80 1013.4
20260506061603 47 13 0.0 9.0 0.00 0.00 0.00 84 1013.3
20260506050109 46 52 0.0 1.0 0.00 0.00 0.00 86 1013.0
20260506044556 46 40 0.0 0.0 0.00 0.00 0.00 87 1012.9